Location: Kershaw
(34.5481°N, 80.5823°W)
Time: 04:03:38
(UTC+00:00)

Explorer 7 - Pass Details

Date: 07 October 2022
Orbit: 481 x 665 km, 50.3° (Epoch: 01 December)

Event Time Altitude Azimuth Distance (km) Brightness Sun altitude
Rises 14:43:41 0° 257° (WSW) 2,971 10.3 37.0°
Reaches altitude 10° 14:46:14 10° 267° (W) 2,075 9.5 37.4°
Maximum altitude 14:50:31 31° 330° (NNW) 1,158 8.3 38.1°
Drops below altitude 10° 14:54:50 10° 33° (NNE) 2,083 9.8 38.7°
Sets 14:57:24 0° 44° (NE) 2,986 10.6 39.1°
